FENGYUN 1C DEB, 31946

Orbit data source: Space-Track

FENGYUN 1C DEB, 31946 is space debris in SSO originally from a launch on Mon, 10 May 1999 UTC launched from the Taiyaun Space Center, China (TSC). Fengyun 1C debris stems from the Chinese weather satellite Fengyun-1C, which was intentionally destroyed by a Chinese anti-satellite missile in 2007. This event dramatically increased the amount of space debris, with thousands of trackable fragments posing hazards to satellites and human spaceflight. The Fengyun 1C debris cloud has become a focal point in discussions about space sustainability and the need for international regulations to prevent the creation of new debris.

Loading next visibility...
Identifier
31946, 1999-025CMX
Orbit
SSO
Country
Flag of CNCN / PRC
Related business
Manufacturer
Unknown
Mission
Spacecraft
Bus & Motor
Unknown
Mass
Unknown
Launch date (UTC)
1999-05-10 (27 years ago)
Launch vehicle
Unknown
Launch site
Taiyaun Space Center, China (TSC)
Object type
Payload
Rocket body
Debris
Shape & HBR
Unknown shape, 0.1 m
Radar Cross Section
Small (<0.1 m²)

Expand to show TLE details & history
Last TLE update: 5 days ago

TLE from 5 days ago
0 FENGYUN 1C DEB
1 31946U 99025CMX 26204.44278891  .00002192  00000-0  10619-2 0  9998
2 31946  98.8876 269.6361 0085583 133.7417 227.0884 14.17549662671627
Epoch: 2026-07-23T10:37Z
TLE epoch observation values (Epoch: 2026-07-23T10:37:36.961Z)
Latitude
-0.00007°
Longitude
169.0484°
Altitude
878.871 km
Speed
7.391 km/s
True Right ascension
17h 58m 32s
True Declination
0° 00' 00"
Sunlit
Object was in full shadow at epoch
Visualization orbit readout
Latitude
Unknown
Longitude
Unknown
Altitude
Unknown
Speed
Unknown
Apparent Right ascension
Unknown
Apparent Declination
Unknown
Sunlit
N/A
Visualization observer readout
Local Sidereal Time
05:39:39
Azimuth
Unknown
Elevation
Unknown
Doppler factor
Unknown
Orbital elements
Apogee altitude
892.518 km
Perigee altitude
769.125 km
Semi-major axis
7,208.959 km
Eccentricity
0.00856
Inclination
98.8876°
RAAN
269.6361°
Arg. of periapsis
133.7417°
True anomaly
226.37534°
Mean anomaly
227.0884°
Eccentric anomaly
226.73135°
Mean motion
3.54596 °/min
Orbital period
101.52 mins
BSTAR
0.0010619
Loading maneuver chart data...
Computing Atmospheric mass density...

Documentation

Showing up to 5 results
|